Weather History for Pompano Beach, FL

Change the Weather History Date:

Saturday, February 22, 2014

  Actual Average Record
Temperature  
Mean Temperature 78 °F -  
Max Temperature 84 °F 79 °F 86 °F (1989)
Min Temperature 71 °F 61 °F 36 °F (1977)
Cooling Degree Days 12    
Growing Degree Days 28 (Base 50)    
Moisture  
Dew Point 70 °F    
Average Humidity 79    
Maximum Humidity 94    
Minimum Humidity 58    
Precipitation  
Precipitation 0.00 in - - ()
Sea Level Pressure  
Sea Level Pressure 30.07 in    
Wind  
Wind Speed 5 mph (SSE)    
Max Wind Speed 16 mph    
Max Gust Speed -    
Visibility 10 miles    
Events Thunderstorm    
Averages and records for this station are not official NWS values.
T = Trace of Precipitation, MM = Missing Value Source: NWS Daily Summary

Daily Weather History Graph

Daily Weather History Graph

Search for Another Location

Airport:

Trip Planner

Search our weather history database for the weather conditions in past years. The results will help you decide how hot, cold, wet, or windy it might be!

Date:

Astronomy

Feb. 22, 2014 Rise Set
Actual Time 6:50 AM EST 6:17 PM EST
Civil Twilight 6:26 AM EST 6:41 PM EST
Nautical Twilight 6:00 AM EST 7:08 PM EST
Astronomical Twilight 5:33 AM EST 7:34 PM EST
Moon 12:30 AM EST (2/22) 11:41 AM EST (2/22)
Length of Visible Light 12h 14m
Length of Day
11h 27m
Waning Gibbous, 50% of the Moon is Illuminated
Feb 22
Waning Gibbous
Feb 22
Last Quarter
Mar 1
New
Mar 8
First Quarter
Mar 16
Full

Hourly Weather History & Observations

Time (EST) Temp. Heat Index Dew Point Humidity Pressure Visibility Wind Dir Wind Speed Gust Speed Precip Events Conditions
12:53 AM 75.9 °F - 71.1 °F 85% 30.07 in 10.0 mi South 4.6 mph - N/A   Clear
1:53 AM 75.9 °F - 71.1 °F 85% 30.05 in 10.0 mi SSE 4.6 mph - N/A   Partly Cloudy
2:44 AM 75.2 °F - 71.6 °F 89% 30.05 in 10.0 mi South 3.5 mph - N/A   Mostly Cloudy
2:53 AM 75.0 °F - 71.1 °F 87% 30.05 in 10.0 mi Calm Calm - N/A   Scattered Clouds
3:53 AM 73.9 °F - 71.1 °F 91% 30.04 in 10.0 mi Calm Calm - N/A   Mostly Cloudy
4:15 AM 73.4 °F - 69.8 °F 88% 30.04 in 10.0 mi Calm Calm - N/A   Scattered Clouds
4:53 AM 71.1 °F - 69.1 °F 93% 30.05 in 7.0 mi Calm Calm - N/A   Clear
5:30 AM 71.6 °F - 69.8 °F 94% 30.06 in 7.0 mi Calm Calm - N/A   Mostly Cloudy
5:53 AM 72.0 °F - 70.0 °F 93% 30.06 in 7.0 mi Calm Calm - N/A   Scattered Clouds
6:53 AM 71.1 °F - 68.0 °F 90% 30.08 in 8.0 mi Calm Calm - N/A   Clear
7:53 AM 73.0 °F - 71.1 °F 93% 30.10 in 8.0 mi Calm Calm - N/A   Partly Cloudy
8:53 AM 78.1 °F - 71.1 °F 79% 30.12 in 10.0 mi SSW 6.9 mph - N/A   Scattered Clouds
9:53 AM 82.0 °F 85.9 °F 70.0 °F 67% 30.13 in 10.0 mi SSE 11.5 mph - N/A   Scattered Clouds
10:53 AM 82.9 °F 87.0 °F 70.0 °F 65% 30.12 in 10.0 mi SSE 13.8 mph - N/A   Scattered Clouds
11:53 AM 82.9 °F 85.8 °F 68.0 °F 60% 30.11 in 10.0 mi SE 11.5 mph - 0.00 in   Scattered Clouds
12:53 PM 84.0 °F 87.0 °F 68.0 °F 58% 30.08 in 10.0 mi SSE 13.8 mph - N/A   Scattered Clouds
1:53 PM 84.0 °F 87.8 °F 69.1 °F 61% 30.04 in 10.0 mi SSE 16.1 mph - N/A   Clear
2:53 PM 82.0 °F 85.9 °F 70.0 °F 67% 30.02 in 10.0 mi SSE 13.8 mph - N/A   Clear
3:53 PM 81.0 °F 84.4 °F 70.0 °F 69% 30.01 in 10.0 mi SSE 15.0 mph - N/A   Clear
4:53 PM 80.1 °F 82.9 °F 69.1 °F 69% 30.01 in 10.0 mi SSE 12.7 mph - N/A   Clear
5:53 PM 79.0 °F - 69.1 °F 72% 30.03 in 10.0 mi SSE 11.5 mph - N/A   Partly Cloudy
6:53 PM 78.1 °F - 70.0 °F 76% 30.04 in 10.0 mi South 8.1 mph - N/A   Clear
7:53 PM 78.1 °F - 70.0 °F 76% 30.06 in 10.0 mi SSE 9.2 mph - N/A   Partly Cloudy
8:53 PM 77.0 °F - 70.0 °F 79% 30.09 in 10.0 mi South 5.8 mph - N/A Thunderstorm Thunderstorm
9:10 PM 77.0 °F - 69.8 °F 78% 30.09 in 10.0 mi SSW 4.6 mph - N/A   Scattered Clouds
9:53 PM 75.9 °F - 69.1 °F 79% 30.10 in 10.0 mi NNW 5.8 mph - N/A   Scattered Clouds
10:53 PM 73.0 °F - 69.1 °F 87% 30.10 in 10.0 mi NNW 4.6 mph - N/A   Clear
11:53 PM 73.0 °F - 69.1 °F 87% 30.09 in 10.0 mi Calm Calm - N/A   Clear